{"data":{"norad_id":60460,"intl_designator":"2024-148C","name":"YAOGAN-43 01C","alt_names":[],"object_type":"PAYLOAD","status":"ACTIVE","operator":null,"country":"PRC","launch_date":"2024-08-16","launch_site_code":"XICLF","launch_vehicle":null,"mission":null,"orbit_class":"UNKNOWN","rcs_meters":null,"size_class":null,"mass_kg":null,"dimensions":null,"purposes":[],"wikipedia_slug":null,"has_3d_model":false,"image_url":null,"decayed_at":null,"tle_current":{"epoch":"2026-09-22T10:16:30.939168Z","epoch_age_seconds":119662,"freshness":"FRESH","line1":"1 60460U 24148C   26265.42813587  .00005812  00000+0  24068-3 0  9992","line2":"2 60460  34.9990 270.9243 0005119 356.1483   3.9192 15.23260248116976","mean_motion":15.23260248,"eccentricity":0.0005119,"inclination_deg":34.999,"raan_deg":270.9243,"arg_perigee_deg":356.1483,"mean_anomaly_deg":3.9192,"bstar":0.00024068,"rev_number":11697,"period_min":94.534075965724,"perigee_km":492.49566769672,"apogee_km":499.53342404939,"semimajor_km":6874.1515458731,"source":"CELESTRAK","updated_at":"2026-09-23T09:00:20.618589Z"}}}